This is the latest recevied weather packets stored in our database for station/object WA0GMH-1. If no packets are shown the sender has not sent any weather packets the latest 10 day(s).
| Time | Temp. | Humidity | Pressure | Rain* | Wind** | Luminosity | Snow |
|---|---|---|---|---|---|---|---|
| 1778022889 | 12.78° C | 63% | 1013.2 hPa | 0 mm | - | - | - |
| 1778022487 | 13.33° C | 62% | 1013.2 hPa | 0 mm | - | - | - |
| 1778022084 | 13.89° C | 62% | 1013.2 hPa | 0 mm | - | - | - |
| 1778021683 | 13.89° C | 62% | 1013.1 hPa | 0 mm | - | - | - |
| 1778021280 | 14.44° C | 62% | 1013 hPa | 0 mm | - | - | - |
| 1778020878 | 15° C | 61% | 1013.3 hPa | 0 mm | - | - | - |
| 1778020475 | 15° C | 62% | 1013 hPa | 0 mm | - | - | - |
| 1778020074 | 14.44° C | 62% | 1013.3 hPa | 0 mm | - | - | - |
| 1778019671 | 14.44° C | 63% | 1013 hPa | 0 mm | - | - | - |
| 1778018866 | 13.89° C | 63% | 1013.2 hPa | 0 mm | - | - | - |
| 1778018465 | 14.44° C | 63% | 1013.2 hPa | 0 mm | - | - | - |
| 1778018062 | 14.44° C | 63% | 1013.2 hPa | 0 mm | - | - | - |
| 1778017660 | 13.89° C | 62% | 1013.2 hPa | 0 mm | - | - | - |
| 1778017257 | 14.44° C | 62% | 1013.3 hPa | 0 mm | - | - | - |
| 1778016856 | 14.44° C | 65% | 1013.3 hPa | 0 mm | - | - | - |
| 1778016453 | 13.89° C | 64% | 1013.2 hPa | 0 mm | - | - | - |
| 1778016051 | 13.89° C | 66% | 1013.4 hPa | 0 mm | - | - | - |
| 1778015648 | 13.89° C | 65% | 1013.4 hPa | 0 mm | - | - | - |
| 1778015247 | 13.33° C | 66% | 1013.7 hPa | 0 mm | - | - | - |
| 1778014844 | 13.33° C | 66% | 1013.7 hPa | 0 mm | - | - | - |
| 1778014442 | 13.33° C | 65% | 1013.7 hPa | 0 mm | - | - | - |
| 1778014039 | 12.22° C | 69% | 1013.8 hPa | 0 mm | - | - | - |
| 1778013638 | 12.22° C | 66% | 1013.8 hPa | 0 mm | - | - | - |
| 1778013235 | 12.78° C | 67% | 1013.8 hPa | 0 mm | - | - | - |
| 1778012833 | 12.22° C | 67% | 1013.9 hPa | 0 mm | - | - | - |
* Rain since midnight (hover to see other rain measurements)
** Current wind speed in m/s (hover to see current wind gust speed)